La Veta Pass, CO

2:16 PM MDT on September 26, 2017 (GMT -0600)
La Veta Pass

Weather History for KVTP - October, 2013

Change the Weather History Date:

Friday, October 11, 2013

  Actual Average (KTAD) Record (KTAD)
Temperature  
Mean Temperature 30 °F -  
Max Temperature 37 °F 72 °F 88 °F (2015)
Min Temperature 23 °F 40 °F 23 °F (1969)
Degree Days  
Heating Degree Days 35    
Moisture  
Dew Point 25 °F    
Average Humidity 83    
Maximum Humidity 93    
Minimum Humidity 70    
Precipitation  
Precipitation 0.00 in - - ()
Sea Level Pressure  
Sea Level Pressure 30.03 in    
Wind  
Wind Speed 17 mph (SW)    
Max Wind Speed 28 mph    
Max Gust Speed 45 mph    
Visibility 10 miles    
Events      
Averages and records for this station are not official NWS values.
T = Trace of Precipitation, MM = Missing Value Source: NWS Daily Summary

Daily Weather History Graph

Daily Weather History Graph

Search for Another Location

Airport or City:

Trip Planner

Search our weather history database for the weather conditions in past years. The results will help you decide how hot, cold, wet, or windy it might be!

Date:

Astronomy

Oct. 11, 2013 Rise Set
Actual Time 7:05 AM MDT 6:28 PM MDT
Civil Twilight 6:39 AM MDT 6:54 PM MDT
Nautical Twilight 6:08 AM MDT 7:25 PM MDT
Astronomical Twilight 5:38 AM MDT 7:55 PM MDT
Moon 1:45 PM MDT (10/11) No Moon Set
Length of Visible Light 12h 15m
Length of Day
11h 23m
Waxing Crescent, 48% of the Moon is Illuminated
Oct 11
Waxing Crescent
Oct 11
First Quarter
Oct 18
Full
Oct 26
Last Quarter
Nov 3
New

Hourly Weather History & Observations

Time (MDT) Temp. Windchill Dew Point Humidity Pressure Visibility Wind Dir Wind Speed Gust Speed Precip Events Conditions
12:14 AM 23.0 °F 9.2 °F 21.2 °F 93% 29.89 in 10.0 mi SW 17.3 mph 33.4 mph N/A   Mostly Cloudy
12:33 AM 23.0 °F 8.7 °F 21.2 °F 93% 29.89 in 10.0 mi SW 18.4 mph 34.5 mph N/A   Mostly Cloudy
12:54 AM 23.0 °F 8.3 °F 21.2 °F 93% 29.89 in 10.0 mi SW 19.6 mph 33.4 mph N/A   Mostly Cloudy
1:13 AM 23.0 °F 7.2 °F 21.2 °F 93% 29.90 in 10.0 mi SW 23.0 mph 34.5 mph N/A   Mostly Cloudy
1:33 AM 23.0 °F 6.6 °F 21.2 °F 93% 29.90 in 10.0 mi SW 25.3 mph 36.8 mph N/A   Overcast
1:53 AM 23.0 °F 7.6 °F 21.2 °F 93% 29.91 in 10.0 mi SW 21.9 mph 36.8 mph N/A   Mostly Cloudy
2:14 AM 23.0 °F 6.9 °F 21.2 °F 93% 29.91 in 10.0 mi SW 24.2 mph 36.8 mph N/A   Scattered Clouds
2:34 AM 23.0 °F 6.3 °F 21.2 °F 93% 29.90 in 10.0 mi SW 26.5 mph 35.7 mph N/A   Scattered Clouds
2:54 AM 23.0 °F 6.6 °F 21.2 °F 93% 29.91 in 10.0 mi SW 25.3 mph 41.4 mph N/A   Mostly Cloudy
3:14 AM 23.0 °F 6.6 °F 21.2 °F 93% 29.91 in 10.0 mi SW 25.3 mph 38.0 mph N/A   Mostly Cloudy
3:34 AM 24.8 °F 9.6 °F 21.2 °F 86% 29.91 in 10.0 mi SW 23.0 mph 39.1 mph N/A   Mostly Cloudy
3:53 AM 24.8 °F 10.7 °F 21.2 °F 86% 29.92 in 10.0 mi SW 19.6 mph 33.4 mph N/A   Overcast
4:14 AM 26.6 °F 13.4 °F 23.0 °F 86% 29.92 in 10.0 mi SW 18.4 mph 32.2 mph N/A   Overcast
4:34 AM 26.6 °F 14.3 °F 23.0 °F 86% 29.92 in 10.0 mi SW 16.1 mph 27.6 mph N/A   Overcast
4:54 AM 26.6 °F 13.1 °F 23.0 °F 86% 29.92 in 10.0 mi SW 19.6 mph 28.8 mph N/A   Overcast
5:14 AM 24.8 °F 10.0 °F 23.0 °F 93% 29.91 in 10.0 mi SW 21.9 mph 39.1 mph N/A   Mostly Cloudy
5:34 AM 26.6 °F 11.4 °F 23.0 °F 86% 29.90 in 10.0 mi SW 25.3 mph 38.0 mph N/A   Mostly Cloudy
5:53 AM 26.6 °F 10.8 °F 23.0 °F 86% 29.90 in 10.0 mi SW 27.6 mph 44.9 mph N/A   Scattered Clouds
6:14 AM 26.6 °F 12.7 °F 23.0 °F 86% 29.91 in 10.0 mi SW 20.7 mph 36.8 mph N/A   Scattered Clouds
6:33 AM 26.6 °F 14.3 °F 23.0 °F 86% 29.92 in 10.0 mi SW 16.1 mph 40.3 mph N/A   Scattered Clouds
6:54 AM 26.6 °F 13.4 °F 23.0 °F 86% 29.93 in 10.0 mi SW 18.4 mph 33.4 mph N/A   Scattered Clouds
7:13 AM 26.6 °F 14.3 °F 23.0 °F 86% 29.93 in 10.0 mi SW 16.1 mph 29.9 mph N/A   Scattered Clouds
7:34 AM 26.6 °F 13.1 °F 23.0 °F 86% 29.93 in 10.0 mi SW 19.6 mph 36.8 mph N/A   Scattered Clouds
7:54 AM 26.6 °F 12.4 °F 23.0 °F 86% 29.93 in 10.0 mi WSW 21.9 mph 36.8 mph N/A   Clear
8:13 AM 26.6 °F 12.0 °F 23.0 °F 86% 29.94 in 10.0 mi SW 23.0 mph 35.7 mph N/A   Clear
8:34 AM 26.6 °F 14.3 °F 23.0 °F 86% 29.96 in 10.0 mi SW 16.1 mph 36.8 mph N/A   Clear
8:53 AM 26.6 °F 15.2 °F 23.0 °F 86% 29.97 in 10.0 mi WSW 13.8 mph 32.2 mph N/A   Clear
9:14 AM 28.4 °F 17.0 °F 23.0 °F 80% 29.97 in 10.0 mi WSW 15.0 mph 25.3 mph N/A   Clear
9:34 AM 28.4 °F 18.0 °F 23.0 °F 80% 29.98 in 10.0 mi WSW 12.7 mph 26.5 mph N/A   Clear
9:53 AM 30.2 °F 19.3 °F 23.0 °F 75% 29.99 in 10.0 mi WSW 15.0 mph 27.6 mph N/A   Scattered Clouds
10:14 AM 30.2 °F 17.8 °F 24.8 °F 80% 29.99 in 10.0 mi SW 19.6 mph 32.2 mph N/A   Scattered Clouds
10:33 AM 30.2 °F 19.3 °F 26.6 °F 86% 30.01 in 10.0 mi SW 15.0 mph 35.7 mph N/A   Scattered Clouds
10:54 AM 32.0 °F 22.5 °F 26.6 °F 80% 30.01 in 10.0 mi SW 12.7 mph 25.3 mph N/A   Clear
11:14 AM 32.0 °F 21.6 °F 28.4 °F 87% 30.02 in 10.0 mi SW 15.0 mph 29.9 mph N/A   Scattered Clouds
11:34 AM 33.8 °F 23.2 °F 30.2 °F 87% 30.02 in 10.0 mi SW 17.3 mph 31.1 mph N/A   Clear
11:54 AM 33.8 °F 22.8 °F 28.4 °F 81% 30.03 in 10.0 mi SW 18.4 mph 32.2 mph N/A   Scattered Clouds
12:14 PM 33.8 °F 24.3 °F 30.2 °F 87% 30.05 in 10.0 mi SW 13.8 mph 28.8 mph N/A   Clear
12:34 PM 35.6 °F 25.9 °F 30.2 °F 81% 30.05 in 10.0 mi SW 16.1 mph 27.6 mph N/A   Scattered Clouds
12:54 PM 35.6 °F 26.2 °F 30.2 °F 81% 30.05 in 10.0 mi SW 15.0 mph 28.8 mph N/A   Scattered Clouds
1:13 PM 35.6 °F 24.8 °F 30.2 °F 81% 30.04 in 10.0 mi SW 19.6 mph 31.1 mph N/A   Scattered Clouds
1:34 PM 35.6 °F 27.1 °F 30.2 °F 81% 30.04 in 10.0 mi SW 12.7 mph 31.1 mph N/A   Clear
1:54 PM 35.6 °F 26.2 °F 28.4 °F 75% 30.04 in 10.0 mi SW 15.0 mph 27.6 mph N/A   Clear
2:14 PM 35.6 °F 26.2 °F 28.4 °F 75% 30.05 in 10.0 mi SW 15.0 mph 28.8 mph N/A   Clear
2:34 PM 37.4 °F 30.3 °F 28.4 °F 70% 30.06 in 10.0 mi SW 10.4 mph 25.3 mph N/A   Clear
2:54 PM 37.4 °F 28.9 °F 28.4 °F 70% 30.06 in 10.0 mi SW 13.8 mph 24.2 mph N/A   Clear
3:13 PM 37.4 °F 28.5 °F 28.4 °F 70% 30.07 in 10.0 mi SW 15.0 mph 26.5 mph N/A   Clear
3:34 PM 37.4 °F 31.4 °F 28.4 °F 70% 30.08 in 10.0 mi SW 8.1 mph 21.9 mph N/A   Scattered Clouds
3:54 PM 35.6 °F 30.7 °F 28.4 °F 75% 30.10 in 10.0 mi WSW 5.8 mph - N/A   Mostly Cloudy
4:14 PM 33.8 °F 27.7 °F 28.4 °F 81% 30.10 in 10.0 mi SW 6.9 mph - N/A   Overcast
4:33 PM 33.8 °F 27.0 °F 26.6 °F 75% 30.10 in 10.0 mi SW 8.1 mph - N/A   Overcast
4:54 PM 33.8 °F 27.0 °F 28.4 °F 81% 30.11 in 10.0 mi SW 8.1 mph - N/A   Mostly Cloudy
5:13 PM 33.8 °F 28.6 °F 26.6 °F 75% 30.12 in 10.0 mi SW 5.8 mph - N/A   Mostly Cloudy
5:34 PM 35.6 °F 29.2 °F 26.6 °F 70% 30.12 in 10.0 mi SW 8.1 mph 18.4 mph N/A   Overcast
5:54 PM 33.8 °F 27.0 °F 26.6 °F 75% 30.13 in 10.0 mi SW 8.1 mph 17.3 mph N/A   Scattered Clouds
6:14 PM 33.8 °F 25.8 °F 28.4 °F 81% 30.14 in 10.0 mi SW 10.4 mph 17.3 mph N/A   Clear
6:33 PM 32.0 °F 25.6 °F 26.6 °F 80% 30.14 in 10.0 mi SW 6.9 mph - N/A   Clear
6:54 PM 32.0 °F 26.4 °F 26.6 °F 80% 30.14 in 10.0 mi SW 5.8 mph 16.1 mph N/A   Clear
7:14 PM 32.0 °F 22.1 °F 26.6 °F 80% 30.14 in 10.0 mi SW 13.8 mph 19.6 mph N/A   Clear
7:30 PM 32.0 °F 24.2 °F 26.6 °F 80% 30.15 in 10.0 mi SW 9.2 mph 17.3 mph N/A   Clear
7:54 PM 32.0 °F 24.8 °F 26.6 °F 80% 30.16 in 10.0 mi SW 8.1 mph 16.1 mph N/A   Clear
8:14 PM 32.0 °F 23.6 °F 26.6 °F 80% 30.16 in 10.0 mi SW 10.4 mph - N/A   Clear
8:34 PM 32.0 °F 24.8 °F 26.6 °F 80% 30.17 in 10.0 mi SW 8.1 mph - N/A   Scattered Clouds
8:54 PM 32.0 °F 26.4 °F 26.6 °F 80% 30.18 in 10.0 mi SW 5.8 mph - N/A   Mostly Cloudy
9:14 PM 32.0 °F 26.4 °F 26.6 °F 80% 30.19 in 10.0 mi SW 5.8 mph - N/A   Mostly Cloudy
9:34 PM 32.0 °F - 26.6 °F 80% 30.21 in 10.0 mi Calm Calm - N/A   Overcast
9:54 PM 32.0 °F - 26.6 °F 80% 30.21 in 10.0 mi Calm Calm - N/A   Mostly Cloudy
10:14 PM 32.0 °F 27.5 °F 26.6 °F 80% 30.22 in 10.0 mi SW 4.6 mph - N/A   Mostly Cloudy
10:34 PM 32.0 °F 28.7 °F 26.6 °F 80% 30.23 in 10.0 mi SW 3.5 mph - N/A   Scattered Clouds
10:54 PM 32.0 °F - 26.6 °F 80% 30.23 in 10.0 mi Calm Calm - N/A   Clear
11:13 PM 30.2 °F - 26.6 °F 86% 30.23 in 10.0 mi Calm Calm - N/A   Clear
11:34 PM 30.2 °F 26.7 °F 26.6 °F 86% 30.23 in 10.0 mi West 3.5 mph - N/A   Mostly Cloudy
11:54 PM 30.2 °F 26.7 °F 26.6 °F 86% 30.23 in 10.0 mi SW 3.5 mph - N/A   Mostly Cloudy